Location: *
(52.2090°N, 4.1550°W)
Time: 09:25:22
(UTC+00:00)

Cosmos 1743 Rocket - Pass Details

Date: 19 July 2019
Orbit: 604 x 633 km, 82.6° (Epoch: 19 August)

Event Time Altitude Azimuth Distance (km) Brightness Sun altitude
Exits shadow 21:59:02 - 199° (SSW) 2,814 6.6 -10.6°
Reaches altitude 10° 22:01:07 10° 202° (SSW) 1,973 5.8 -10.7°
Maximum altitude 22:05:27 61° 284° (WNW) 698 4.0 -11.1°
Drops below altitude 10° 22:09:46 10° 5° (N) 1,974 7.0 -11.5°
Sets 22:12:01 0° 9° (N) 2,880 7.8 -11.6°
